Location: Helsinki
(60.1699°N, 24.9384°E)
Time: 04:13:54
(UTC+02:00)

Transit 4A - Pass Details

Date: 04 November 2020
Orbit: 862 x 982 km, 66.8° (Epoch: 25 November)

Event Time Altitude Azimuth Distance (km) Brightness Sun altitude
Rises 23:47:26 0° 312° (NW) 3,699 11.5 -45.5°
Enters shadow 23:50:00 - 300° (WNW) 2,962 10.8 -45.5°
Reaches altitude 10° 23:50:54 10° 294° (WNW) 2,742 - -45.5°
Maximum altitude 23:54:53 18° 255° (WSW) 2,227 - -45.5°
Drops below altitude 10° 23:58:50 10° 216° (SW) 2,705 - -45.5°
Sets 00:02:14 0° 198° (SSW) 3,628 - -45.6°
